Location: Curicchi
(45.0167°N, 12.0500°E)
Time: 19:44:14
(UTC+00:00)

Cosmos 1842 Rocket - Pass Details

Date: 07 June 2020
Orbit: 605 x 634 km, 82.5° (Epoch: 11 July)

Event Time Altitude Azimuth Distance (km) Brightness Sun altitude
Rises 00:36:53 0° 355° (N) 2,936 8.2 -19.4°
Reaches altitude 10° 00:39:11 10° 360° (N) 2,020 7.2 -19.3°
Maximum altitude 00:43:35 55° 78° (ENE) 757 4.1 -19.0°
Enters shadow 00:46:05 24° 148° (SSE) 1,306 4.9 -18.8°
